| time (UTC) | temp C | wind direction | speed KPH | gust KPH | rain 1hr cm | rain 24hr cm | rain mn cm | humidity % | barometer mb |
| 20260902142325 | 15 | 155 | 1.6 | 11.3 | 0.00 | 0.10 | 0.03 | 85 | 1002.0 |
| 20260902141825 | 15 | 173 | 1.6 | 11.3 | 0.00 | 0.10 | 0.03 | 85 | 1002.1 |
| 20260902141326 | 15 | 40 | 3.2 | 11.3 | 0.00 | 0.10 | 0.03 | 85 | 1002.0 |
| 20260902140825 | 15 | 98 | 6.4 | 24.1 | 0.03 | 0.10 | 0.03 | 85 | 1002.2 |
| 20260902140325 | 15 | 169 | 4.8 | 24.1 | 0.03 | 0.10 | 0.03 | 86 | 1002.3 |
| 20260902135826 | 15 | 204 | 9.7 | 24.1 | 0.03 | 0.10 | 0.03 | 86 | 1002.5 |
| 20260902135325 | 15 | 191 | 11.3 | 22.5 | 0.03 | 0.10 | 0.03 | 86 | 1002.5 |
| 20260902134825 | 15 | 172 | 8.0 | 20.9 | 0.03 | 0.10 | 0.03 | 86 | 1002.5 |
| 20260902134326 | 15 | 166 | 4.8 | 17.7 | 0.03 | 0.10 | 0.03 | 86 | 1002.5 |
| 20260902133825 | 15 | 144 | 8.0 | 11.3 | 0.03 | 0.10 | 0.03 | 86 | 1002.5 |
| 20260902133325 | 15 | 170 | 3.2 | 27.4 | 0.03 | 0.10 | 0.03 | 86 | 1002.5 |
| 20260902132826 | 15 | 93 | 1.6 | 27.4 | 0.03 | 0.10 | 0.03 | 86 | 1002.5 |
| 20260902132325 | 15 | 207 | 6.4 | 27.4 | 0.03 | 0.10 | 0.03 | 86 | 1002.6 |
| 20260902131825 | 15 | 128 | 6.4 | 19.3 | 0.03 | 0.10 | 0.03 | 85 | 1002.7 |
| 20260902131326 | 15 | 154 | 9.7 | 17.7 | 0.03 | 0.10 | 0.03 | 85 | 1002.8 |
| 20260902130825 | 15 | 182 | 8.0 | 17.7 | 0.00 | 0.10 | 0.03 | 85 | 1002.8 |
| 20260902130325 | 15 | 224 | 8.0 | 17.7 | 0.00 | 0.10 | 0.00 | 85 | 1002.9 |
| 20260902125826 | 15 | 180 | 4.8 | 16.1 | 0.00 | 0.10 | 0.00 | 84 | 1003.0 |
| 20260902125325 | 15 | 194 | 6.4 | 16.1 | 0.00 | 0.10 | 0.00 | 84 | 1003.0 |
| 20260902124917 | 16 | 169 | 4.8 | 17.7 | 0.00 | 0.10 | 0.00 | 83 | 1003.2 |
| 20260902124825 | 16 | 169 | 4.8 | 17.7 | 0.00 | 0.10 | 0.00 | 83 | 1003.2 |
| 20260902124326 | 16 | 180 | 9.7 | 17.7 | 0.00 | 0.10 | 0.00 | 83 | 1003.3 |
| 20260902123825 | 16 | 173 | 8.0 | 17.7 | 0.00 | 0.10 | 0.00 | 83 | 1003.3 |
| 20260902123325 | 16 | 221 | 6.4 | 27.4 | 0.00 | 0.10 | 0.00 | 82 | 1003.3 |
| 20260902122826 | 16 | 166 | 4.8 | 27.4 | 0.00 | 0.10 | 0.00 | 82 | 1003.2 |
| 20260902121825 | 16 | 151 | 12.9 | 19.3 | 0.00 | 0.10 | 0.00 | 81 | 1003.2 |
| 20260902121327 | 16 | 197 | 6.4 | 16.1 | 0.00 | 0.10 | 0.00 | 82 | 1003.3 |
| 20260902120825 | 16 | 147 | 4.8 | 16.1 | 0.00 | 0.10 | 0.00 | 82 | 1003.5 |
| 20260902120325 | 16 | 193 | 9.7 | 16.1 | 0.00 | 0.10 | 0.00 | 82 | 1003.4 |
| 20260902115826 | 16 | 208 | 6.4 | 29.0 | 0.00 | 0.10 | 0.00 | 82 | 1003.5 |
| 20260902115325 | 16 | 163 | 6.4 | 29.0 | 0.00 | 0.10 | 0.00 | 82 | 1003.5 |
| 20260902114825 | 16 | 166 | 4.8 | 29.0 | 0.00 | 0.10 | 0.00 | 82 | 1003.6 |
| 20260902114326 | 16 | 149 | 11.3 | 12.9 | 0.00 | 0.10 | 0.00 | 82 | 1003.7 |
| 20260902113825 | 16 | 207 | 6.4 | 17.7 | 0.00 | 0.10 | 0.00 | 82 | 1003.9 |
| 20260902113325 | 16 | 113 | 4.8 | 17.7 | 0.00 | 0.10 | 0.00 | 82 | 1004.0 |
| 20260902112826 | 16 | 161 | 6.4 | 17.7 | 0.00 | 0.10 | 0.00 | 82 | 1004.1 |
| 20260902112325 | 16 | 159 | 8.0 | 22.5 | 0.00 | 0.10 | 0.00 | 83 | 1004.0 |
| 20260902111825 | 16 | 144 | 9.7 | 22.5 | 0.00 | 0.10 | 0.00 | 83 | 1004.1 |
| 20260902111326 | 16 | 190 | 6.4 | 22.5 | 0.00 | 0.10 | 0.00 | 83 | 1004.2 |
| 20260902110827 | 16 | 184 | 6.4 | 19.3 | 0.00 | 0.10 | 0.00 | 83 | 1004.3 |
| 20260902110325 | 16 | 149 | 8.0 | 16.1 | 0.00 | 0.10 | 0.00 | 83 | 1004.4 |
| 20260902105826 | 16 | 190 | 9.7 | 16.1 | 0.00 | 0.10 | 0.00 | 84 | 1004.5 |
| 20260902105325 | 16 | 201 | 6.4 | 17.7 | 0.00 | 0.10 | 0.00 | 84 | 1004.6 |
| 20260902104825 | 16 | 84 | 6.4 | 17.7 | 0.00 | 0.10 | 0.00 | 84 | 1004.6 |
| 20260902104326 | 16 | 100 | 4.8 | 17.7 | 0.00 | 0.10 | 0.00 | 84 | 1004.6 |
| 20260902103825 | 16 | 170 | 6.4 | 12.9 | 0.00 | 0.10 | 0.00 | 84 | 1004.7 |
| 20260902103325 | 16 | 98 | 4.8 | 20.9 | 0.00 | 0.10 | 0.00 | 84 | 1004.8 |
| 20260902102826 | 16 | 183 | 1.6 | 20.9 | 0.00 | 0.10 | 0.00 | 84 | 1004.9 |
| 20260902102325 | 16 | 173 | 8.0 | 20.9 | 0.00 | 0.10 | 0.00 | 84 | 1004.9 |
| 20260902101825 | 16 | 200 | 9.7 | 27.4 | 0.00 | 0.10 | 0.00 | 84 | 1005.0 |
| 20260902101326 | 16 | 212 | 9.7 | 27.4 | 0.00 | 0.10 | 0.00 | 84 | 1005.2 |
| 20260902100825 | 16 | 135 | 6.4 | 27.4 | 0.00 | 0.10 | 0.00 | 85 | 1005.3 |
| 20260902100325 | 16 | 109 | 9.7 | 14.5 | 0.00 | 0.10 | 0.00 | 85 | 1005.3 |
| 20260902095826 | 16 | 189 | 6.4 | 14.5 | 0.00 | 0.10 | 0.00 | 85 | 1005.3 |
| 20260902095325 | 16 | 208 | 3.2 | 20.9 | 0.00 | 0.10 | 0.00 | 85 | 1005.4 |
| 20260902094825 | 16 | 135 | 9.7 | 20.9 | 0.00 | 0.10 | 0.00 | 85 | 1005.5 |
| 20260902094326 | 16 | 200 | 8.0 | 20.9 | 0.00 | 0.10 | 0.00 | 85 | 1005.5 |
| 20260902093825 | 16 | 189 | 8.0 | 17.7 | 0.00 | 0.10 | 0.00 | 85 | 1005.6 |
| 20260902093325 | 16 | 194 | 8.0 | 17.7 | 0.00 | 0.10 | 0.00 | 85 | 1005.6 |
| 20260902092826 | 16 | 212 | 4.8 | 17.7 | 0.00 | 0.10 | 0.00 | 85 | 1005.7 |
| 20260902092325 | 16 | 131 | 6.4 | 25.7 | 0.00 | 0.10 | 0.00 | 85 | 1005.8 |
| 20260902091825 | 16 | 141 | 4.8 | 25.7 | 0.00 | 0.10 | 0.00 | 85 | 1005.8 |
| 20260902091326 | 16 | 191 | 11.3 | 25.7 | 0.00 | 0.10 | 0.00 | 85 | 1005.8 |
| 20260902090825 | 16 | 205 | 12.9 | 22.5 | 0.00 | 0.10 | 0.00 | 85 | 1005.8 |
| 20260902090325 | 16 | 149 | 9.7 | 22.5 | 0.00 | 0.10 | 0.00 | 85 | 1005.9 |
| 20260902085857 | 16 | 201 | 4.8 | 32.2 | 0.00 | 0.10 | 0.00 | 85 | 1005.9 |
| 20260902085826 | 16 | 201 | 4.8 | 32.2 | 0.00 | 0.10 | 0.00 | 85 | 1005.9 |
| 20260902085325 | 16 | 214 | 1.6 | 32.2 | 0.00 | 0.10 | 0.00 | 85 | 1006.0 |
| 20260902084825 | 16 | 158 | 11.3 | 32.2 | 0.00 | 0.10 | 0.00 | 85 | 1006.1 |
| 20260902084326 | 16 | 186 | 16.1 | 24.1 | 0.00 | 0.10 | 0.00 | 85 | 1006.2 |
| 20260902083825 | 16 | 208 | 12.9 | 14.5 | 0.00 | 0.10 | 0.00 | 85 | 1006.2 |
| 20260902083325 | 16 | 218 | 0.0 | 14.5 | 0.00 | 0.10 | 0.00 | 85 | 1006.2 |
| 20260902082826 | 16 | 193 | 4.8 | 22.5 | 0.00 | 0.10 | 0.00 | 85 | 1006.2 |
| 20260902082325 | 16 | 151 | 3.2 | 22.5 | 0.00 | 0.10 | 0.00 | 85 | 1006.3 |
| 20260902081825 | 16 | 177 | 11.3 | 22.5 | 0.00 | 0.10 | 0.00 | 85 | 1006.3 |
| 20260902081326 | 16 | 203 | 6.4 | 20.9 | 0.00 | 0.10 | 0.00 | 85 | 1006.3 |
| 20260902080825 | 16 | 183 | 8.0 | 20.9 | 0.00 | 0.10 | 0.00 | 85 | 1006.3 |
| 20260902080325 | 16 | 236 | 9.7 | 14.5 | 0.00 | 0.10 | 0.00 | 85 | 1006.3 |
| 20260902075826 | 16 | 201 | 6.4 | 24.1 | 0.00 | 0.10 | 0.00 | 85 | 1006.4 |
| 20260902075325 | 16 | 193 | 8.0 | 24.1 | 0.00 | 0.10 | 0.00 | 85 | 1006.5 |
| 20260902074825 | 16 | 127 | 8.0 | 24.1 | 0.00 | 0.10 | 0.00 | 85 | 1006.5 |
| 20260902074326 | 16 | 218 | 6.4 | 19.3 | 0.00 | 0.10 | 0.00 | 85 | 1006.6 |
| 20260902073825 | 16 | 155 | 6.4 | 22.5 | 0.00 | 0.10 | 0.00 | 85 | 1006.6 |
| 20260902073325 | 16 | 109 | 11.3 | 22.5 | 0.00 | 0.10 | 0.00 | 85 | 1006.7 |
| 20260902072858 | 16 | 184 | 3.2 | 22.5 | 0.00 | 0.10 | 0.00 | 85 | 1006.7 |
| 20260902072826 | 16 | 184 | 3.2 | 22.5 | 0.00 | 0.10 | 0.00 | 85 | 1006.7 |
| 20260902072325 | 16 | 197 | 14.5 | 20.9 | 0.00 | 0.10 | 0.00 | 85 | 1006.8 |
| 20260902071825 | 16 | 163 | 12.9 | 20.9 | 0.00 | 0.10 | 0.00 | 85 | 1006.8 |
| 20260902071326 | 16 | 144 | 4.8 | 20.9 | 0.00 | 0.10 | 0.00 | 85 | 1006.9 |
| 20260902070825 | 16 | 149 | 4.8 | 19.3 | 0.00 | 0.10 | 0.00 | 85 | 1006.9 |
| 20260902070325 | 16 | 210 | 1.6 | 16.1 | 0.00 | 0.10 | 0.00 | 85 | 1007.0 |
| 20260902065826 | 16 | 193 | 4.8 | 16.1 | 0.00 | 0.10 | 0.00 | 85 | 1007.0 |
| 20260902065325 | 16 | 201 | 3.2 | 16.1 | 0.00 | 0.10 | 0.10 | 86 | 1007.0 |
| 20260902064825 | 16 | 179 | 8.0 | 24.1 | 0.00 | 0.10 | 0.10 | 86 | 1007.1 |
| 20260902064326 | 16 | 184 | 9.7 | 24.1 | 0.00 | 0.10 | 0.10 | 86 | 1007.1 |
| 20260902063825 | 16 | 134 | 6.4 | 24.1 | 0.00 | 0.10 | 0.10 | 86 | 1007.1 |
| 20260902063325 | 15 | 182 | 11.3 | 14.5 | 0.00 | 0.10 | 0.10 | 86 | 1007.1 |
| 20260902062826 | 16 | 200 | 4.8 | 12.9 | 0.00 | 0.10 | 0.10 | 86 | 1007.1 |
| 20260902062325 | 16 | 207 | 6.4 | 12.9 | 0.00 | 0.10 | 0.10 | 86 | 1007.0 |
| 20260902061825 | 16 | 180 | 4.8 | 20.9 | 0.00 | 0.10 | 0.10 | 86 | 1007.1 |
| 20260902061326 | 16 | 158 | 1.6 | 20.9 | 0.00 | 0.10 | 0.10 | 86 | 1007.2 |
| 20260902060825 | 16 | 60 | 4.8 | 20.9 | 0.00 | 0.10 | 0.10 | 86 | 1007.2 |
| 20260902060325 | 16 | 175 | 4.8 | 19.3 | 0.00 | 0.10 | 0.10 | 86 | 1007.3 |
| 20260902055325 | 16 | 179 | 6.4 | 27.4 | 0.00 | 0.10 | 0.10 | 86 | 1007.3 |
| 20260902054825 | 16 | 180 | 3.2 | 27.4 | 0.00 | 0.10 | 0.10 | 86 | 1007.4 |
| 20260902054326 | 16 | 193 | 4.8 | 16.1 | 0.00 | 0.10 | 0.10 | 87 | 1007.4 |
| 20260902053825 | 16 | 144 | 6.4 | 14.5 | 0.00 | 0.10 | 0.10 | 87 | 1007.4 |
| 20260902053325 | 16 | 133 | 8.0 | 14.5 | 0.00 | 0.10 | 0.10 | 87 | 1007.5 |
| 20260902052826 | 16 | 187 | 6.4 | 27.4 | 0.00 | 0.10 | 0.10 | 87 | 1007.5 |
| 20260902052325 | 16 | 186 | 8.0 | 27.4 | 0.00 | 0.10 | 0.10 | 87 | 1007.5 |
| 20260902051825 | 16 | 46 | 0.0 | 27.4 | 0.00 | 0.10 | 0.10 | 87 | 1007.6 |
| 20260902051326 | 16 | 127 | 8.0 | 20.9 | 0.00 | 0.10 | 0.10 | 87 | 1007.6 |
| 20260902050825 | 16 | 190 | 11.3 | 29.0 | 0.00 | 0.10 | 0.10 | 87 | 1007.6 |
| 20260902050325 | 16 | 156 | 6.4 | 29.0 | 0.00 | 0.10 | 0.10 | 87 | 1007.5 |
| 20260902045826 | 16 | 200 | 12.9 | 29.0 | 0.00 | 0.10 | 0.10 | 87 | 1007.6 |
| 20260902044825 | 16 | 180 | 6.4 | 22.5 | 0.00 | 0.10 | 0.10 | 87 | 1007.7 |
| 20260902044326 | 16 | 172 | 9.7 | 22.5 | 0.00 | 0.10 | 0.10 | 87 | 1007.8 |
| 20260902043826 | 16 | 207 | 8.0 | 22.5 | 0.00 | 0.10 | 0.10 | 87 | 1007.7 |
| 20260902043325 | 16 | 179 | 6.4 | 22.5 | 0.00 | 0.10 | 0.10 | 87 | 1007.7 |
| 20260902042826 | 16 | 205 | 6.4 | 20.9 | 0.00 | 0.10 | 0.10 | 87 | 1007.7 |
| 20260902042325 | 16 | 162 | 8.0 | 20.9 | 0.00 | 0.10 | 0.10 | 87 | 1007.8 |
| 20260902041825 | 16 | 165 | 11.3 | 20.9 | 0.00 | 0.10 | 0.10 | 87 | 1007.9 |
| 20260902041326 | 16 | 175 | 12.9 | 25.7 | 0.00 | 0.10 | 0.10 | 87 | 1007.9 |
| 20260902040825 | 16 | 163 | 11.3 | 25.7 | 0.00 | 0.10 | 0.10 | 87 | 1007.9 |
| 20260902040325 | 16 | 156 | 6.4 | 25.7 | 0.00 | 0.10 | 0.10 | 87 | 1007.8 |
| 20260902035826 | 16 | 208 | 16.1 | 25.7 | 0.00 | 0.10 | 0.10 | 87 | 1007.8 |
| 20260902034825 | 16 | 163 | 6.4 | 25.7 | 0.00 | 0.10 | 0.10 | 87 | 1007.8 |
| 20260902034326 | 16 | 194 | 11.3 | 30.6 | 0.00 | 0.10 | 0.10 | 87 | 1007.8 |
| 20260902033825 | 16 | 194 | 11.3 | 30.6 | 0.00 | 0.10 | 0.10 | 87 | 1007.9 |
| 20260902033325 | 16 | 176 | 14.5 | 30.6 | 0.00 | 0.10 | 0.10 | 87 | 1007.9 |
| 20260902032826 | 16 | 180 | 8.0 | 25.7 | 0.00 | 0.10 | 0.10 | 87 | 1007.9 |
| 20260902031825 | 16 | 203 | 9.7 | 17.7 | 0.00 | 0.10 | 0.10 | 87 | 1008.0 |
| 20260902031326 | 16 | 196 | 6.4 | 14.5 | 0.00 | 0.10 | 0.10 | 87 | 1007.9 |
| 20260902030825 | 16 | 193 | 4.8 | 14.5 | 0.00 | 0.10 | 0.10 | 87 | 1007.9 |
| 20260902030325 | 16 | 190 | 6.4 | 14.5 | 0.00 | 0.10 | 0.10 | 87 | 1007.8 |
| 20260902025826 | 16 | 187 | 4.8 | 12.9 | 0.00 | 0.10 | 0.10 | 87 | 1007.8 |
| 20260902025325 | 16 | 165 | 8.0 | 8.0 | 0.00 | 0.10 | 0.10 | 87 | 1007.7 |
| 20260902024825 | 16 | 210 | 0.0 | 16.1 | 0.00 | 0.10 | 0.10 | 87 | 1007.8 |
| 20260902024326 | 16 | 198 | 6.4 | 16.1 | 0.00 | 0.10 | 0.10 | 87 | 1007.8 |
| 20260902023825 | 16 | 183 | 8.0 | 16.1 | 0.00 | 0.10 | 0.10 | 87 | 1007.8 |
| 20260902023325 | 16 | 214 | 11.3 | 12.9 | 0.00 | 0.10 | 0.10 | 86 | 1007.8 |
| 20260902022825 | 16 | 205 | 3.2 | 9.7 | 0.00 | 0.10 | 0.10 | 87 | 1007.8 |
| 20260902022325 | 16 | 186 | 6.4 | 19.3 | 0.00 | 0.10 | 0.10 | 86 | 1007.8 |
| 20260902021825 | 16 | 228 | 8.0 | 19.3 | 0.00 | 0.10 | 0.10 | 86 | 1007.8 |
| 20260902021326 | 16 | 177 | 8.0 | 19.3 | 0.00 | 0.10 | 0.10 | 86 | 1007.8 |
| 20260902020825 | 16 | 186 | 11.3 | 22.5 | 0.00 | 0.10 | 0.10 | 86 | 1007.9 |
| 20260902020325 | 16 | 184 | 11.3 | 22.5 | 0.00 | 0.10 | 0.10 | 86 | 1008.0 |
| 20260902015826 | 16 | 173 | 11.3 | 22.5 | 0.00 | 0.10 | 0.10 | 86 | 1007.9 |
| 20260902015325 | 16 | 200 | 11.3 | 19.3 | 0.00 | 0.10 | 0.10 | 86 | 1007.8 |
| 20260902014825 | 16 | 162 | 11.3 | 19.3 | 0.00 | 0.10 | 0.10 | 86 | 1007.7 |
| 20260902014326 | 16 | 156 | 12.9 | 20.9 | 0.00 | 0.10 | 0.10 | 86 | 1007.7 |
| 20260902013825 | 16 | 204 | 9.7 | 20.9 | 0.00 | 0.10 | 0.10 | 87 | 1007.7 |
| 20260902013325 | 16 | 190 | 6.4 | 20.9 | 0.00 | 0.10 | 0.10 | 86 | 1007.8 |
| 20260902012825 | 16 | 154 | 12.9 | 17.7 | 0.00 | 0.10 | 0.10 | 87 | 1007.8 |
| 20260902012325 | 16 | 193 | 9.7 | 16.1 | 0.00 | 0.10 | 0.10 | 87 | 1007.7 |
| 20260902011825 | 16 | 246 | 9.7 | 25.7 | 0.00 | 0.10 | 0.10 | 87 | 1007.7 |
| 20260902011326 | 16 | 201 | 6.4 | 25.7 | 0.00 | 0.10 | 0.10 | 87 | 1007.7 |
| 20260902010825 | 16 | 196 | 12.9 | 25.7 | 0.00 | 0.10 | 0.10 | 86 | 1007.8 |
| 20260902010325 | 16 | 196 | 16.1 | 24.1 | 0.00 | 0.10 | 0.10 | 86 | 1007.8 |
| 20260902005825 | 16 | 201 | 9.7 | 24.1 | 0.00 | 0.10 | 0.10 | 86 | 1007.8 |
| 20260902005325 | 16 | 205 | 6.4 | 24.1 | 0.00 | 0.10 | 0.10 | 86 | 1007.8 |
| 20260902004825 | 16 | 184 | 14.5 | 22.5 | 0.00 | 0.10 | 0.10 | 86 | 1007.8 |
| 20260902004326 | 16 | 187 | 12.9 | 25.7 | 0.00 | 0.10 | 0.10 | 86 | 1007.9 |
| 20260902003825 | 16 | 187 | 11.3 | 25.7 | 0.00 | 0.10 | 0.10 | 86 | 1007.9 |
| 20260902003325 | 16 | 184 | 14.5 | 25.7 | 0.00 | 0.10 | 0.10 | 86 | 1008.0 |
| 20260902002825 | 16 | 194 | 12.9 | 24.1 | 0.00 | 0.10 | 0.10 | 85 | 1008.1 |
| 20260902002325 | 16 | 200 | 12.9 | 24.1 | 0.00 | 0.10 | 0.10 | 86 | 1008.1 |
| 20260902001825 | 16 | 184 | 9.7 | 29.0 | 0.00 | 0.10 | 0.10 | 86 | 1008.2 |
| 20260902001328 | 16 | 211 | 9.7 | 29.0 | 0.00 | 0.10 | 0.10 | 86 | 1008.1 |
| 20260902000825 | 16 | 182 | 8.0 | 29.0 | 0.00 | 0.10 | 0.10 | 85 | 1008.1 |
| 20260902000325 | 16 | 210 | 9.7 | 22.5 | 0.00 | 0.10 | 0.10 | 85 | 1008.2 |
| 20260901235826 | 16 | 177 | 16.1 | 30.6 | 0.00 | 0.10 | 0.10 | 85 | 1008.1 |
| 20260901235325 | 16 | 191 | 11.3 | 30.6 | 0.00 | 0.10 | 0.10 | 85 | 1008.2 |
| 20260901234825 | 16 | 186 | 19.3 | 30.6 | 0.00 | 0.10 | 0.10 | 85 | 1008.3 |
| 20260901234326 | 17 | 189 | 16.1 | 29.0 | 0.00 | 0.10 | 0.10 | 85 | 1008.2 |
| 20260901233825 | 17 | 196 | 12.9 | 24.1 | 0.00 | 0.10 | 0.10 | 85 | 1008.2 |
| 20260901233325 | 17 | 207 | 12.9 | 33.8 | 0.00 | 0.10 | 0.10 | 85 | 1008.2 |
| 20260901232825 | 16 | 193 | 14.5 | 33.8 | 0.00 | 0.10 | 0.10 | 85 | 1008.2 |
| 20260901232325 | 16 | 182 | 19.3 | 33.8 | 0.00 | 0.10 | 0.10 | 85 | 1008.2 |
| 20260901231825 | 17 | 198 | 17.7 | 32.2 | 0.00 | 0.10 | 0.10 | 85 | 1008.3 |
| 20260901231326 | 16 | 175 | 12.9 | 32.2 | 0.00 | 0.10 | 0.10 | 85 | 1008.2 |
| 20260901225825 | 17 | 172 | 12.9 | 25.7 | 0.00 | 0.10 | 0.10 | 83 | 1008.3 |
| 20260901225325 | 17 | 190 | 9.7 | 25.7 | 0.00 | 0.10 | 0.10 | 83 | 1008.3 |
| 20260901224825 | 17 | 158 | 11.3 | 25.7 | 0.00 | 0.10 | 0.10 | 84 | 1008.2 |
| 20260901224326 | 17 | 252 | 11.3 | 24.1 | 0.00 | 0.10 | 0.10 | 84 | 1008.2 |
| 20260901223825 | 17 | 201 | 11.3 | 22.5 | 0.00 | 0.10 | 0.10 | 84 | 1008.3 |
| 20260901223325 | 17 | 180 | 12.9 | 20.9 | 0.00 | 0.10 | 0.10 | 84 | 1008.2 |
| 20260901222825 | 17 | 190 | 12.9 | 17.7 | 0.00 | 0.10 | 0.10 | 84 | 1008.3 |
| 20260901222325 | 17 | 226 | 8.0 | 17.7 | 0.00 | 0.10 | 0.10 | 84 | 1008.4 |
| 20260901221825 | 17 | 221 | 8.0 | 16.1 | 0.00 | 0.10 | 0.10 | 84 | 1008.4 |
| 20260901221326 | 17 | 246 | 6.4 | 16.1 | 0.00 | 0.10 | 0.10 | 84 | 1008.4 |
| 20260901220826 | 17 | 229 | 8.0 | 12.9 | 0.00 | 0.10 | 0.10 | 84 | 1008.4 |
| 20260901220325 | 18 | 257 | 6.4 | 12.9 | 0.00 | 0.10 | 0.10 | 84 | 1008.4 |
| 20260901215325 | 17 | 190 | 8.0 | 19.3 | 0.00 | 0.10 | 0.10 | 85 | 1008.4 |
| 20260901214825 | 17 | 200 | 9.7 | 19.3 | 0.00 | 0.10 | 0.10 | 85 | 1008.3 |
| 20260901214326 | 17 | 154 | 12.9 | 19.3 | 0.00 | 0.10 | 0.10 | 85 | 1008.3 |
| 20260901213825 | 17 | 180 | 6.4 | 24.1 | 0.00 | 0.10 | 0.10 | 85 | 1008.3 |
| 20260901213325 | 17 | 189 | 11.3 | 24.1 | 0.00 | 0.10 | 0.10 | 84 | 1008.2 |
| 20260901212825 | 17 | 247 | 12.9 | 24.1 | 0.00 | 0.10 | 0.10 | 84 | 1008.2 |
| 20260901212325 | 17 | 232 | 14.5 | 24.1 | 0.00 | 0.10 | 0.10 | 84 | 1008.2 |
| 20260901211825 | 17 | 239 | 11.3 | 25.7 | 0.00 | 0.10 | 0.10 | 85 | 1008.2 |
| 20260901211326 | 17 | 190 | 8.0 | 25.7 | 0.00 | 0.10 | 0.10 | 85 | 1008.2 |
| 20260901210825 | 17 | 193 | 8.0 | 25.7 | 0.00 | 0.10 | 0.10 | 85 | 1008.2 |
| 20260901210325 | 17 | 207 | 14.5 | 19.3 | 0.00 | 0.10 | 0.10 | 85 | 1008.2 |
| 20260901205825 | 17 | 168 | 12.9 | 20.9 | 0.00 | 0.10 | 0.10 | 85 | 1008.2 |
| 20260901205325 | 16 | 225 | 11.3 | 20.9 | 0.00 | 0.10 | 0.10 | 86 | 1008.2 |
| 20260901204825 | 16 | 184 | 4.8 | 20.9 | 0.00 | 0.10 | 0.10 | 86 | 1008.1 |
| 20260901204326 | 16 | 239 | 9.7 | 20.9 | 0.00 | 0.10 | 0.10 | 85 | 1008.1 |
| 20260901203826 | 16 | 247 | 11.3 | 20.9 | 0.00 | 0.10 | 0.10 | 86 | 1008.2 |
| 20260901203326 | 16 | 187 | 11.3 | 19.3 | 0.00 | 0.10 | 0.10 | 85 | 1008.1 |
| 20260901202825 | 16 | 214 | 4.8 | 19.3 | 0.00 | 0.10 | 0.10 | 86 | 1008.2 |
| 20260901202325 | 16 | 170 | 9.7 | 19.3 | 0.00 | 0.10 | 0.10 | 86 | 1008.3 |
| 20260901201825 | 16 | 187 | 6.4 | 17.7 | 0.00 | 0.10 | 0.10 | 86 | 1008.3 |
| 20260901201326 | 16 | 197 | 8.0 | 17.7 | 0.00 | 0.10 | 0.10 | 85 | 1008.4 |
| 20260901200825 | 16 | 274 | 6.4 | 14.5 | 0.00 | 0.10 | 0.10 | 86 | 1008.4 |
| 20260901200325 | 16 | 211 | 6.4 | 14.5 | 0.00 | 0.10 | 0.10 | 86 | 1008.3 |
| 20260901195825 | 16 | 194 | 4.8 | 20.9 | 0.00 | 0.10 | 0.10 | 85 | 1008.3 |
| 20260901195325 | 17 | 211 | 8.0 | 20.9 | 0.00 | 0.10 | 0.10 | 85 | 1008.3 |
| 20260901194826 | 17 | 196 | 6.4 | 20.9 | 0.00 | 0.10 | 0.10 | 85 | 1008.3 |
| 20260901194326 | 17 | 183 | 6.4 | 16.1 | 0.00 | 0.10 | 0.10 | 85 | 1008.3 |
| 20260901193825 | 17 | 203 | 6.4 | 19.3 | 0.00 | 0.10 | 0.10 | 86 | 1008.4 |
| 20260901193325 | 17 | 232 | 3.2 | 19.3 | 0.00 | 0.10 | 0.10 | 86 | 1008.3 |
| 20260901192825 | 17 | 163 | 4.8 | 19.3 | 0.00 | 0.10 | 0.10 | 86 | 1008.3 |
| 20260901192325 | 17 | 158 | 9.7 | 17.7 | 0.00 | 0.10 | 0.10 | 86 | 1008.3 |
| 20260901191825 | 16 | 208 | 6.4 | 17.7 | 0.00 | 0.10 | 0.10 | 87 | 1008.3 |
| 20260901191326 | 16 | 239 | 9.7 | 17.7 | 0.00 | 0.10 | 0.10 | 86 | 1008.3 |
| 20260901190827 | 16 | 204 | 4.8 | 27.4 | 0.00 | 0.10 | 0.10 | 87 | 1008.4 |
| 20260901190325 | 16 | 193 | 11.3 | 27.4 | 0.00 | 0.10 | 0.10 | 87 | 1008.3 |
| 20260901185825 | 16 | 204 | 11.3 | 27.4 | 0.00 | 0.10 | 0.10 | 86 | 1008.3 |
| 20260901185325 | 16 | 212 | 12.9 | 25.7 | 0.00 | 0.10 | 0.10 | 86 | 1008.4 |
| 20260901184825 | 16 | 205 | 12.9 | 22.5 | 0.00 | 0.10 | 0.10 | 87 | 1008.3 |
| 20260901184326 | 16 | 144 | 11.3 | 22.5 | 0.00 | 0.10 | 0.10 | 87 | 1008.3 |
| 20260901183825 | 16 | 180 | 8.0 | 22.5 | 0.00 | 0.10 | 0.10 | 87 | 1008.4 |
| 20260901183325 | 16 | 194 | 8.0 | 20.9 | 0.00 | 0.10 | 0.10 | 88 | 1008.3 |
| 20260901182825 | 16 | 169 | 9.7 | 20.9 | 0.00 | 0.10 | 0.10 | 87 | 1008.3 |
| 20260901182325 | 16 | 203 | 9.7 | 20.9 | 0.00 | 0.10 | 0.10 | 88 | 1008.2 |
| 20260901181825 | 16 | 194 | 12.9 | 17.7 | 0.00 | 0.10 | 0.10 | 88 | 1008.2 |
| 20260901181328 | 16 | 138 | 8.0 | 17.7 | 0.00 | 0.10 | 0.10 | 88 | 1008.2 |
| 20260901180825 | 16 | 180 | 8.0 | 17.7 | 0.00 | 0.10 | 0.10 | 88 | 1008.2 |
| 20260901180325 | 16 | 257 | 6.4 | 17.7 | 0.00 | 0.10 | 0.10 | 88 | 1008.2 |
| 20260901175826 | 16 | 190 | 8.0 | 17.7 | 0.00 | 0.10 | 0.10 | 88 | 1008.2 |
| 20260901175325 | 16 | 225 | 6.4 | 17.7 | 0.00 | 0.10 | 0.10 | 88 | 1008.3 |
| 20260901174825 | 16 | 253 | 4.8 | 16.1 | 0.00 | 0.10 | 0.10 | 88 | 1008.2 |
| 20260901174326 | 16 | 236 | 8.0 | 11.3 | 0.00 | 0.10 | 0.10 | 88 | 1008.2 |
| 20260901173825 | 17 | 249 | 4.8 | 14.5 | 0.00 | 0.10 | 0.10 | 88 | 1008.1 |
| 20260901173418 | 17 | 235 | 3.2 | 14.5 | 0.00 | 0.10 | 0.10 | 88 | 1008.0 |
| 20260901173325 | 17 | 235 | 3.2 | 14.5 | 0.00 | 0.10 | 0.10 | 88 | 1008.0 |
| 20260901172826 | 17 | 246 | 3.2 | 14.5 | 0.00 | 0.10 | 0.10 | 88 | 1008.0 |
| 20260901172325 | 17 | 190 | 3.2 | 16.1 | 0.00 | 0.10 | 0.10 | 89 | 1007.9 |
| 20260901171825 | 17 | 207 | 4.8 | 16.1 | 0.00 | 0.10 | 0.10 | 90 | 1007.8 |
| 20260901171326 | 17 | 203 | 3.2 | 16.1 | 0.00 | 0.10 | 0.10 | 90 | 1007.8 |
| 20260901170825 | 17 | 214 | 9.7 | 11.3 | 0.00 | 0.10 | 0.10 | 90 | 1007.8 |
| 20260901170325 | 17 | 191 | 6.4 | 9.7 | 0.00 | 0.10 | 0.10 | 90 | 1007.8 |
| 20260901165826 | 16 | 196 | 1.6 | 8.0 | 0.00 | 0.10 | 0.10 | 90 | 1007.8 |
| 20260901165325 | 16 | 201 | 1.6 | 8.0 | 0.00 | 0.10 | 0.10 | 90 | 1007.8 |
| 20260901164825 | 16 | 222 | 4.8 | 8.0 | 0.00 | 0.10 | 0.10 | 90 | 1007.8 |
| 20260901164326 | 16 | 194 | 0.0 | 6.4 | 0.00 | 0.10 | 0.10 | 90 | 1007.9 |
| 20260901163825 | 16 | 204 | 1.6 | 6.4 | 0.00 | 0.10 | 0.10 | 89 | 1007.9 |
| 20260901163325 | 16 | 162 | 1.6 | 4.8 | 0.00 | 0.10 | 0.10 | 90 | 1008.0 |
| 20260901162826 | 16 | 0 | 1.6 | 3.2 | 0.03 | 0.10 | 0.10 | 90 | 1007.9 |
| 20260901162325 | 16 | 156 | 0.0 | 3.2 | 0.03 | 0.10 | 0.10 | 90 | 1008.0 |
| 20260901161825 | 16 | 187 | 0.0 | 1.6 | 0.03 | 0.10 | 0.10 | 90 | 1008.0 |
| 20260901161326 | 16 | 196 | 0.0 | 0.0 | 0.03 | 0.10 | 0.10 | 90 | 1008.0 |
| 20260901160825 | 16 | 211 | 0.0 | 12.9 | 0.05 | 0.10 | 0.10 | 90 | 1008.0 |
| 20260901160325 | 16 | 196 | 0.0 | 12.9 | 0.05 | 0.10 | 0.10 | 90 | 1008.0 |
| 20260901155826 | 16 | 201 | 6.4 | 12.9 | 0.08 | 0.10 | 0.10 | 89 | 1007.9 |
| 20260901155325 | 16 | 194 | 4.8 | 4.8 | 0.08 | 0.10 | 0.10 | 89 | 1007.9 |
| 20260901154825 | 16 | 0 | 0.0 | 0.0 | 0.08 | 0.10 | 0.10 | 89 | 1008.0 |
| 20260901154326 | 15 | 0 | 0.0 | 0.0 | 0.08 | 0.10 | 0.10 | 89 | 1008.0 |
| 20260901153825 | 15 | 210 | 0.0 | 9.7 | 0.08 | 0.10 | 0.10 | 89 | 1008.0 |
| 20260901153325 | 15 | 246 | 0.0 | 9.7 | 0.08 | 0.10 | 0.10 | 89 | 1008.0 |
| 20260901152827 | 15 | 193 | 1.6 | 9.7 | 0.05 | 0.10 | 0.10 | 89 | 1007.9 |
| 20260901152325 | 15 | 229 | 6.4 | 8.0 | 0.05 | 0.08 | 0.08 | 89 | 1008.0 |
| 20260901151825 | 15 | 217 | 1.6 | 8.0 | 0.05 | 0.08 | 0.08 | 89 | 1008.0 |
| 20260901151326 | 15 | 222 | 3.2 | 8.0 | 0.05 | 0.08 | 0.08 | 89 | 1008.0 |
| 20260901150825 | 15 | 233 | 1.6 | 6.4 | 0.03 | 0.08 | 0.08 | 89 | 1008.0 |
| 20260901150325 | 15 | 249 | 3.2 | 3.2 | 0.03 | 0.05 | 0.05 | 89 | 1007.9 |
| 20260901145825 | 15 | 218 | 0.0 | 4.8 | 0.00 | 0.05 | 0.05 | 89 | 1007.9 |
| 20260901144825 | 15 | 81 | 0.0 | 4.8 | 0.00 | 0.03 | 0.03 | 89 | 1007.9 |
| 20260901144326 | 15 | 92 | 3.2 | 4.8 | 0.00 | 0.03 | 0.03 | 89 | 1007.8 |
| 20260901143825 | 15 | 93 | 0.0 | 4.8 | 0.00 | 0.03 | 0.03 | 89 | 1007.8 |
| 20260901143325 | 15 | 79 | 1.6 | 6.4 | 0.00 | 0.03 | 0.03 | 89 | 1007.8 |
| 20260901142826 | 15 | 89 | 1.6 | 6.4 | 0.00 | 0.03 | 0.03 | 89 | 1007.8 |